Weather History for Jamestown, ND

Change the Weather History Date:

Monday, October 7, 2013

  Actual Average Record
Temperature  
Mean Temperature 52 °F 48 °F  
Max Temperature 68 °F 60 °F 86 °F (1966)
Min Temperature 36 °F 36 °F 15 °F (1976)
Degree Days  
Heating Degree Days 13 17  
Month to date heating degree days 122 109  
Since 1 July heating degree days 285 427  
Cooling Degree Days 0 0  
Month to date cooling degree days 0 0  
Year to date cooling degree days 521 445  
Growing Degree Days 2 (Base 50)    
Moisture  
Dew Point 40 °F    
Average Humidity 60    
Maximum Humidity 86    
Minimum Humidity 34    
Precipitation  
Precipitation 0.00 in 0.06 in 1.01 in (1977)
Month to date precipitation 1.77 0.42  
Year to date precipitation 13.14 16.61  
Sea Level Pressure  
Sea Level Pressure 29.89 in    
Wind  
Wind Speed 6 mph (SSW)    
Max Wind Speed 16 mph    
Max Gust Speed 21 mph    
Visibility 10 miles    
Events      
T = Trace of Precipitation, MM = Missing Value Source: NWS Daily Summary

Daily Weather History Graph

Daily Weather History Graph

Search for Another Location

Airport:

Trip Planner

Search our weather history database for the weather conditions in past years. The results will help you decide how hot, cold, wet, or windy it might be!

Date:

Astronomy

Oct. 07, 2013 Rise Set
Actual Time 7:41 AM CDT 7:02 PM CDT
Civil Twilight 7:11 AM CDT 7:32 PM CDT
Nautical Twilight 6:36 AM CDT 8:07 PM CDT
Astronomical Twilight 6:00 AM CDT 8:42 PM CDT
Moon 10:45 AM CDT (10/7) 8:35 PM CDT (10/7)
Length of Visible Light 12h 20m
Length of Day
11h 20m
Waxing Crescent, 9% of the Moon is Illuminated
Oct 7
Waxing Crescent
Oct 11
First Quarter
Oct 18
Full
Oct 26
Last Quarter
Nov 3
New

Hourly Weather History & Observations

Time (CDT) Temp. Windchill Dew Point Humidity Pressure Visibility Wind Dir Wind Speed Gust Speed Precip Events Conditions
12:56 AM 46.0 °F 43.1 °F 39.9 °F 79% 29.92 in 10.0 mi WNW 5.8 mph - N/A   Clear
1:56 AM 44.1 °F 40.8 °F 39.0 °F 82% 29.92 in 10.0 mi West 5.8 mph - N/A   Clear
2:56 AM 42.1 °F 39.2 °F 37.9 °F 85% 29.93 in 10.0 mi WNW 4.6 mph - N/A   Clear
3:56 AM 43.0 °F 41.3 °F 37.9 °F 82% 29.93 in 10.0 mi WNW 3.5 mph - N/A   Clear
4:56 AM 42.1 °F 39.2 °F 37.0 °F 82% 29.94 in 10.0 mi WNW 4.6 mph - N/A   Clear
5:56 AM 39.0 °F 34.8 °F 36.0 °F 89% 29.94 in 10.0 mi NW 5.8 mph - N/A   Clear
6:56 AM 39.9 °F 36.7 °F 36.0 °F 86% 29.95 in 10.0 mi WNW 4.6 mph - N/A   Clear
7:56 AM 37.0 °F - 34.0 °F 89% 29.97 in 10.0 mi Calm Calm - N/A   Clear
8:56 AM 41.0 °F - 37.9 °F 89% 29.98 in 10.0 mi Calm Calm - N/A   Clear
9:56 AM 48.0 °F - 39.9 °F 74% 29.98 in 10.0 mi NNW 3.5 mph - N/A   Clear
10:56 AM 52.0 °F - 39.0 °F 61% 29.97 in 10.0 mi Calm Calm - N/A   Clear
11:56 AM 57.0 °F - 37.9 °F 49% 29.96 in 10.0 mi Calm Calm - N/A   Clear
12:56 PM 61.0 °F - 39.0 °F 44% 29.94 in 10.0 mi Calm Calm - N/A   Clear
1:56 PM 64.9 °F - 37.9 °F 37% 29.91 in 10.0 mi South 5.8 mph - N/A   Clear
2:56 PM 66.0 °F - 37.0 °F 34% 29.89 in 10.0 mi South 6.9 mph - N/A   Clear
3:56 PM 66.9 °F - 39.9 °F 37% 29.87 in 10.0 mi South 10.4 mph - N/A   Clear
4:56 PM 66.9 °F - 41.0 °F 39% 29.85 in 10.0 mi South 15.0 mph - N/A   Clear
5:56 PM 66.0 °F - 43.0 °F 43% 29.84 in 10.0 mi South 12.7 mph - N/A   Clear
6:56 PM 59.0 °F - 44.1 °F 58% 29.83 in 10.0 mi South 6.9 mph - N/A   Clear
7:56 PM 57.0 °F - 44.1 °F 62% 29.82 in 10.0 mi SSE 10.4 mph - N/A   Clear
8:56 PM 55.0 °F - 43.0 °F 64% 29.82 in 10.0 mi SSE 9.2 mph - N/A   Clear
9:56 PM 52.0 °F - 43.0 °F 71% 29.80 in 10.0 mi SSE 6.9 mph - N/A   Clear
10:56 PM 51.1 °F - 44.1 °F 77% 29.77 in 10.0 mi SSE 6.9 mph - N/A   Clear
11:56 PM 51.1 °F - 44.1 °F 77% 29.74 in 10.0 mi South 10.4 mph - N/A   Clear